Rbgn^[z[y[W
メイン
   新天体発見情報
     Comet C/2020 R7 (ATLAS)
投稿するにはまず登録を

スレッド表示 | 新しいものから 前のトピック | 次のトピック | 下へ
投稿者 スレッド
佐藤裕久
投稿日時: 2020-9-28 13:40
モデレータ
登録日: 2005-6-12
居住地: 日本
投稿: 2129
オンライン
Comet C/2020 R7 (ATLAS)

9月15.6日UT、ハワイ Mauna Loaにある小惑星地球衝突最終警報システム Asteroid Terrestrial-
impact Last Alert System (ATLAS)調査プログラムのコースに0.5-m f/2 Schmidt反射望遠鏡で得た
CCD画像から小惑星状天体が発見された。
小惑星センターのPCCP webpageに公表後、佐藤英貴氏(東京都文京区, 9月16.7日UT, 60秒露出10枚
のスタック, 0.51-m f/6.8アストログラフ,  Siding Spring, NSW, 遠隔操作:強く集光した6" の
コマが見えるが尾はない。4".9の円形範囲で測定した光度は19.0等であった)ら、他のCCD位置観測者
によって彗星状と観測された。

彗星機能の報告は次の通り:

OC   Date        Reporter           Coma    Tail    PA          Exposures
Q62  2020-09-16  H. Sato             6"                           10x60s
W88  2020-09-21  N. Paul             6"                           12x50s
W88  2020-09-21  B. Lutkenhoner      8"
X02  2020-09-23  E. Guido            6"                           24x90s

発見位置は次のとおり、

     2020 UT             R.A. (2000) Decl.       Mag.
     Sept.15.59952    4 36 19.99   -40 16 02.5   19.0
          15.60274    4 36 20.00   -40 16 04.8   18.9
          15.61935    4 36 19.79   -40 16 14.9   19.0
          15.62845    4 36 19.65   -40 16 21.1   19.1

MPCの放物線軌道要素、位置推算表は次のとおり、

Orbital elements:
    C/2020 R7 (ATLAS)                                                           
T 2022 Sept. 14.95549 TT                                Rudenko                 
q   2.9393515            (2000.0)            P               Q                  
                   Peri.  348.08237     +0.05867996     -0.41806149             
                   Node   268.34296     -0.82514356     -0.53141685             
e   1.0            Incl.  114.91949     -0.56186722     +0.73676368             
From 51 observations 2020 Sept. 15-23.                                          
                                                                                
Ephemeris:
Date    TT    R. A. (2000) Decl.     Delta      r    Elong.  Phase   m1
2020 08 24    04 38 01.7 -36 33 27   7.1880  7.2850    91.5     8.0  18.2
...
2020 09 08    04 37 38.0 -38 58 24   6.9497  7.1804    99.2     8.0  18.1
...
2020 09 16    04 36 14.6 -40 20 09   6.8312  7.1246   103.0     7.9  18.0
...
2020 09 22    04 34 35.4 -41 22 30   6.7476  7.0826   105.5     7.8  17.9
2020 09 23    04 34 15.7 -41 32 55   6.7341  7.0756   105.9     7.8  17.9
2020 09 24    04 33 55.1 -41 43 21   6.7208  7.0687   106.3     7.8  17.9
...
2020 09 30    04 31 31.3 -42 45 42   6.6442  7.0267   108.5     7.8  17.9
...
2020 10 08    04 27 24.9 -44 07 25   6.5510  6.9706   110.9     7.7  17.8
...
2020 10 23    04 16 51.3 -46 29 53   6.4075  6.8654   113.5     7.6  17.7

(MPEC 2020-S168、CBET 4859)

スレッド表示 | 新しいものから 前のトピック | 次のトピック | トップ

投稿するにはまず登録を
 
© 1999 Tsutomu Seki.